Location: ???? ???? ?????
(31.2680°N, 31.7283°E)
Time: 04:17:26
(UTC+00:00)

Cosmos 2237 Rocket - Pass Details

Date: 13 July 2020
Orbit: 834 x 850 km, 71.0° (Epoch: 10 August)

Event Time Altitude Azimuth Distance (km) Brightness Sun altitude
Rises 18:25:18 0° 198° (SSW) 3,391 5.1 -16.4°
Reaches altitude 10° 18:27:43 10° 198° (SSW) 2,461 4.4 -16.8°
Maximum altitude 18:33:24 88° 107° (ESE) 854 2.1 -17.7°
Drops below altitude 10° 18:39:06 10° 20° (NNE) 2,479 4.9 -18.6°
Sets 18:41:33 0° 21° (NNE) 3,417 5.6 -19.0°
